This is the latest recevied weather packets stored in our database for station/object DD5ZT-13. If no packets are shown the sender has not sent any weather packets the latest 10 day(s).
| Time | Temp. | Humidity | Pressure | Rain* | Wind** | Luminosity | Snow |
|---|---|---|---|---|---|---|---|
| 1778128320 | 15.56° C | 62% | 1015.4 hPa | 0 mm | - | - | - |
| 1778127695 | 15.56° C | 62% | 1015.3 hPa | 0 mm | - | - | - |
| 1778127187 | 15.56° C | 63% | 1015.4 hPa | 0 mm | - | - | - |
| 1778127070 | 15.56° C | 63% | 1015.4 hPa | 0 mm | - | - | - |
| 1778126487 | 15.56° C | 63% | 1015.3 hPa | 0 mm | - | - | - |
| 1778126444 | 15.56° C | 63% | 1015.3 hPa | 0 mm | - | - | - |
| 1778125819 | 15.56° C | 63% | 1015.4 hPa | 0 mm | - | - | - |
| 1778106570 | 13.89° C | 66% | 1013.7 hPa | 0 mm | - | - | - |
| 1778105854 | 13.33° C | 66% | 1013.6 hPa | 0 mm | - | - | - |
| 1778104565 | 17.22° C | 57% | 1013.6 hPa | 0 mm | - | - | - |
| 1778103323 | 17.22° C | 57% | 1013.3 hPa | 0 mm | - | - | - |
| 1778103315 | 17.22° C | 57% | 1013.3 hPa | 0 mm | - | - | - |
| 1778102123 | 17.22° C | 57% | 1013.4 hPa | 0 mm | - | - | - |
| 1778099564 | 17.78° C | 57% | 1013.1 hPa | 0 mm | - | - | - |
| 1778098939 | 17.78° C | 57% | 1013 hPa | 0 mm | - | - | - |
| 1778095223 | 17.78° C | 57% | 1012.7 hPa | 0 mm | - | - | - |
| 1778094563 | 17.78° C | 57% | 1012.7 hPa | 0 mm | - | - | - |
| 1778093330 | 17.78° C | 56% | 1012.4 hPa | 0 mm | - | - | - |
| 1778090812 | 18.33° C | 57% | 1012 hPa | 0 mm | - | - | - |
| 1778089095 | 18.33° C | 57% | 1011.8 hPa | 0 mm | - | - | - |
| 1778088323 | 18.33° C | 56% | 1011.7 hPa | 0 mm | - | - | - |
| 1778087709 | 18.33° C | 56% | 1011.6 hPa | 0 mm | - | - | - |
| 1778087061 | 18.33° C | 56% | 1011.4 hPa | 0 mm | - | - | - |
| 1778085188 | 18.89° C | 55% | 1011.2 hPa | 0 mm | - | - | - |
| 1778081097 | 18.89° C | 54% | 1011 hPa | 0 mm | - | - | - |
* Rain latest hour (hover to see other rain measurements)
** Current wind speed in m/s (hover to see current wind gust speed)